| time (UTC) | temp C | wind direction | speed KPH | gust KPH | rain 1hr cm | rain 24hr cm | rain mn cm | humidity % | barometer mb |
| 20260509185836 | 12 | 298 | 9.7 | 12.9 | 0.00 | 0.00 | 0.00 | 60 | 1008.2 |
| 20260509185332 | 12 | 288 | 11.3 | 14.5 | 0.00 | 0.00 | 0.00 | 57 | 1007.9 |
| 20260509184830 | 12 | 304 | 9.7 | 12.9 | 0.00 | 0.00 | 0.00 | 54 | 1008.1 |
| 20260509184326 | 13 | 254 | 17.7 | 20.9 | 0.00 | 0.00 | 0.00 | 56 | 1008.0 |
| 20260509183823 | 13 | 252 | 12.9 | 16.1 | 0.00 | 0.00 | 0.00 | 52 | 1008.2 |
| 20260509183318 | 13 | 258 | 11.3 | 17.7 | 0.00 | 0.00 | 0.00 | 51 | 1008.4 |
| 20260509182814 | 13 | 308 | 16.1 | 22.5 | 0.00 | 0.00 | 0.00 | 50 | 1008.2 |
| 20260509182311 | 13 | 292 | 22.5 | 32.2 | 0.00 | 0.00 | 0.00 | 51 | 1008.0 |
| 20260509181809 | 13 | 255 | 19.3 | 24.1 | 0.00 | 0.00 | 0.00 | 50 | 1008.3 |
| 20260509181306 | 13 | 267 | 12.9 | 20.9 | 0.00 | 0.00 | 0.00 | 50 | 1008.2 |
| 20260509180803 | 13 | 251 | 6.4 | 8.0 | 0.00 | 0.00 | 0.00 | 51 | 1008.3 |
| 20260509180259 | 13 | 246 | 14.5 | 32.2 | 0.00 | 0.00 | 0.00 | 52 | 1008.6 |
| 20260509175756 | 13 | 298 | 11.3 | 17.7 | 0.00 | 0.00 | 0.00 | 53 | 1008.4 |
| 20260509175252 | 14 | 272 | 12.9 | 22.5 | 0.00 | 0.00 | 0.00 | 54 | 1008.5 |
| 20260509174748 | 13 | 331 | 11.3 | 16.1 | 0.00 | 0.00 | 0.00 | 54 | 1008.6 |
| 20260509174244 | 13 | 286 | 14.5 | 20.9 | 0.00 | 0.00 | 0.00 | 54 | 1008.4 |
| 20260509173740 | 13 | 285 | 6.4 | 9.7 | 0.00 | 0.00 | 0.00 | 55 | 1008.4 |
| 20260509173236 | 13 | 316 | 8.0 | 9.7 | 0.00 | 0.00 | 0.00 | 56 | 1008.7 |
| 20260509172732 | 13 | 296 | 14.5 | 20.9 | 0.00 | 0.00 | 0.00 | 56 | 1008.4 |
| 20260509172229 | 13 | 328 | 11.3 | 16.1 | 0.00 | 0.00 | 0.00 | 56 | 1008.5 |
| 20260509171724 | 13 | 278 | 8.0 | 14.5 | 0.00 | 0.00 | 0.00 | 55 | 1008.3 |
| 20260509171221 | 13 | 241 | 14.5 | 25.7 | 0.00 | 0.00 | 0.00 | 57 | 1008.6 |
| 20260509170718 | 13 | 300 | 8.0 | 11.3 | 0.00 | 0.00 | 0.00 | 58 | 1008.6 |
| 20260509170214 | 13 | 290 | 8.0 | 9.7 | 0.00 | 0.00 | 0.00 | 58 | 1008.5 |
| 20260509165712 | 14 | 288 | 11.3 | 12.9 | 0.00 | 0.00 | 0.00 | 58 | 1008.4 |
| 20260509165207 | 13 | 305 | 9.7 | 12.9 | 0.00 | 0.00 | 0.00 | 59 | 1008.4 |
| 20260509164704 | 13 | 267 | 8.0 | 11.3 | 0.00 | 0.00 | 0.00 | 60 | 1008.5 |
| 20260509164159 | 14 | 244 | 11.3 | 14.5 | 0.00 | 0.00 | 0.00 | 59 | 1008.8 |
| 20260509163657 | 13 | 256 | 8.0 | 11.3 | 0.00 | 0.00 | 0.00 | 61 | 1008.6 |
| 20260509163153 | 14 | 284 | 8.0 | 11.3 | 0.00 | 0.00 | 0.00 | 60 | 1008.6 |
| 20260509162651 | 14 | 282 | 8.0 | 12.9 | 0.00 | 0.00 | 0.00 | 59 | 1008.6 |
| 20260509162146 | 14 | 283 | 16.1 | 22.5 | 0.00 | 0.00 | 0.00 | 59 | 1008.5 |
| 20260509161642 | 14 | 300 | 17.7 | 22.5 | 0.00 | 0.00 | 0.00 | 59 | 1008.5 |
| 20260509161138 | 14 | 304 | 8.0 | 12.9 | 0.00 | 0.00 | 0.00 | 59 | 1008.7 |
| 20260509160634 | 14 | 246 | 4.8 | 8.0 | 0.00 | 0.00 | 0.00 | 59 | 1008.8 |
| 20260509160129 | 14 | 277 | 11.3 | 14.5 | 0.00 | 0.00 | 0.00 | 59 | 1008.6 |
| 20260509155626 | 15 | 277 | 8.0 | 11.3 | 0.00 | 0.00 | 0.00 | 59 | 1008.8 |
| 20260509155122 | 15 | 231 | 8.0 | 9.7 | 0.00 | 0.00 | 0.00 | 59 | 1008.6 |
| 20260509154617 | 15 | 274 | 8.0 | 9.7 | 0.00 | 0.00 | 0.00 | 59 | 1008.7 |
| 20260509154115 | 15 | 198 | 6.4 | 9.7 | 0.00 | 0.00 | 0.00 | 59 | 1008.7 |
| 20260509153612 | 15 | 270 | 6.4 | 8.0 | 0.00 | 0.00 | 0.00 | 59 | 1008.6 |
| 20260509153109 | 15 | 287 | 3.2 | 3.2 | 0.00 | 0.00 | 0.00 | 59 | 1008.8 |
| 20260509152605 | 15 | 294 | 6.4 | 9.7 | 0.00 | 0.00 | 0.00 | 59 | 1008.9 |
| 20260509152102 | 15 | 285 | 4.8 | 8.0 | 0.00 | 0.00 | 0.00 | 58 | 1008.9 |
| 20260509151558 | 15 | 319 | 8.0 | 12.9 | 0.00 | 0.00 | 0.00 | 58 | 1008.6 |
| 20260509151056 | 16 | 245 | 9.7 | 16.1 | 0.00 | 0.00 | 0.00 | 58 | 1008.5 |
| 20260509150553 | 16 | 255 | 8.0 | 9.7 | 0.00 | 0.00 | 0.00 | 57 | 1008.5 |
| 20260509150052 | 16 | 280 | 6.4 | 8.0 | 0.00 | 0.00 | 0.00 | 57 | 1008.7 |
| 20260509145547 | 16 | 270 | 11.3 | 14.5 | 0.00 | 0.00 | 0.00 | 57 | 1008.7 |
| 20260509145043 | 16 | 270 | 8.0 | 9.7 | 0.00 | 0.00 | 0.00 | 57 | 1008.6 |
| 20260509144540 | 16 | 273 | 6.4 | 9.7 | 0.00 | 0.00 | 0.00 | 57 | 1008.6 |
| 20260509144037 | 17 | 278 | 3.2 | 3.2 | 0.00 | 0.00 | 0.00 | 56 | 1008.6 |
| 20260509143534 | 18 | 293 | 4.8 | 4.8 | 0.00 | 0.00 | 0.00 | 54 | 1008.5 |
| 20260509143032 | 18 | 295 | 4.8 | 8.0 | 0.00 | 0.00 | 0.00 | 53 | 1008.5 |
| 20260509142527 | 18 | 311 | 11.3 | 16.1 | 0.00 | 0.00 | 0.00 | 50 | 1008.8 |
| 20260509142023 | 19 | 270 | 8.0 | 11.3 | 0.00 | 0.00 | 0.00 | 47 | 1008.7 |
| 20260509141520 | 19 | 285 | 4.8 | 8.0 | 0.00 | 0.00 | 0.00 | 47 | 1008.7 |
| 20260509141016 | 19 | 278 | 4.8 | 8.0 | 0.00 | 0.00 | 0.00 | 47 | 1008.8 |
| 20260509140513 | 20 | 280 | 11.3 | 14.5 | 0.00 | 0.00 | 0.00 | 46 | 1008.8 |
| 20260509140011 | 20 | 288 | 8.0 | 8.0 | 0.00 | 0.00 | 0.00 | 44 | 1008.7 |
| 20260509135508 | 20 | 317 | 6.4 | 9.7 | 0.00 | 0.00 | 0.00 | 46 | 1008.8 |
| 20260509135006 | 20 | 285 | 3.2 | 4.8 | 0.00 | 0.00 | 0.00 | 45 | 1008.8 |
| 20260509134502 | 21 | 287 | 6.4 | 8.0 | 0.00 | 0.00 | 0.00 | 43 | 1008.8 |
| 20260509134000 | 21 | 306 | 8.0 | 12.9 | 0.00 | 0.00 | 0.00 | 45 | 1008.7 |
| 20260509133456 | 20 | 288 | 4.8 | 8.0 | 0.00 | 0.00 | 0.00 | 43 | 1008.8 |
| 20260509132954 | 20 | 283 | 6.4 | 9.7 | 0.00 | 0.00 | 0.00 | 43 | 1008.8 |
| 20260509132452 | 20 | 358 | 8.0 | 9.7 | 0.00 | 0.00 | 0.00 | 44 | 1008.9 |
| 20260509131949 | 20 | 295 | 6.4 | 8.0 | 0.00 | 0.00 | 0.00 | 45 | 1008.9 |
| 20260509131447 | 21 | 341 | 4.8 | 4.8 | 0.00 | 0.00 | 0.00 | 44 | 1008.9 |
| 20260509130943 | 20 | 323 | 6.4 | 9.7 | 0.00 | 0.00 | 0.00 | 45 | 1008.9 |
| 20260509130438 | 20 | 347 | 8.0 | 9.7 | 0.00 | 0.00 | 0.00 | 44 | 1009.0 |
| 20260509125936 | 21 | 355 | 17.7 | 20.9 | 0.00 | 0.00 | 0.00 | 42 | 1009.0 |
| 20260509125432 | 21 | 334 | 1.6 | 3.2 | 0.00 | 0.00 | 0.00 | 41 | 1009.1 |
| 20260509124928 | 21 | 311 | 8.0 | 11.3 | 0.00 | 0.00 | 0.00 | 43 | 1009.2 |
| 20260509124425 | 20 | 341 | 8.0 | 11.3 | 0.00 | 0.00 | 0.00 | 45 | 1009.4 |
| 20260509123923 | 20 | 12 | 11.3 | 12.9 | 0.00 | 0.00 | 0.00 | 44 | 1009.4 |
| 20260509123420 | 21 | 340 | 4.8 | 8.0 | 0.00 | 0.00 | 0.00 | 45 | 1009.5 |
| 20260509122916 | 20 | 336 | 6.4 | 8.0 | 0.00 | 0.00 | 0.00 | 45 | 1009.7 |
| 20260509122413 | 20 | 338 | 4.8 | 8.0 | 0.00 | 0.00 | 0.00 | 44 | 1009.7 |
| 20260509121909 | 20 | 14 | 8.0 | 9.7 | 0.00 | 0.00 | 0.00 | 47 | 1010.0 |
| 20260509121407 | 20 | 16 | 9.7 | 12.9 | 0.00 | 0.00 | 0.00 | 45 | 1010.2 |
| 20260509120905 | 21 | 338 | 3.2 | 3.2 | 0.00 | 0.00 | 0.00 | 44 | 1010.0 |
| 20260509120402 | 21 | 300 | 8.0 | 9.7 | 0.00 | 0.00 | 0.00 | 43 | 1010.2 |
| 20260509115900 | 20 | 292 | 1.6 | 3.2 | 0.00 | 0.00 | 0.00 | 45 | 1010.3 |
| 20260509115357 | 20 | 324 | 8.0 | 12.9 | 0.00 | 0.00 | 0.00 | 46 | 1010.6 |
| 20260509114855 | 20 | 337 | 8.0 | 12.9 | 0.00 | 0.00 | 0.00 | 46 | 1010.6 |
| 20260509114353 | 20 | 324 | 11.3 | 17.7 | 0.00 | 0.00 | 0.00 | 46 | 1011.1 |
| 20260509113852 | 20 | 339 | 6.4 | 8.0 | 0.00 | 0.00 | 0.00 | 46 | 1011.0 |
| 20260509113349 | 20 | 347 | 14.5 | 20.9 | 0.00 | 0.00 | 0.00 | 45 | 1010.9 |
| 20260509112845 | 20 | 0 | 11.3 | 12.9 | 0.00 | 0.00 | 0.00 | 45 | 1011.1 |
| 20260509112343 | 20 | 5 | 14.5 | 17.7 | 0.00 | 0.00 | 0.00 | 44 | 1011.0 |
| 20260509111840 | 20 | 335 | 6.4 | 9.7 | 0.00 | 0.00 | 0.00 | 46 | 1011.1 |
| 20260509111336 | 20 | 311 | 3.2 | 4.8 | 0.00 | 0.00 | 0.00 | 46 | 1011.2 |
| 20260509110834 | 20 | 341 | 4.8 | 8.0 | 0.00 | 0.00 | 0.00 | 45 | 1011.5 |
| 20260509110330 | 20 | 72 | 4.8 | 4.8 | 0.00 | 0.00 | 0.00 | 46 | 1011.4 |
| 20260509105829 | 20 | 321 | 4.8 | 4.8 | 0.00 | 0.00 | 0.00 | 46 | 1011.4 |
| 20260509105326 | 20 | 338 | 1.6 | 3.2 | 0.00 | 0.00 | 0.00 | 47 | 1011.7 |
| 20260509104823 | 20 | 328 | 8.0 | 11.3 | 0.00 | 0.00 | 0.00 | 45 | 1011.7 |
| 20260509104319 | 20 | 293 | 3.2 | 3.2 | 0.00 | 0.00 | 0.00 | 44 | 1011.6 |
| 20260509103818 | 20 | 334 | 4.8 | 8.0 | 0.00 | 0.00 | 0.00 | 45 | 1011.8 |
| 20260509103314 | 20 | 338 | 9.7 | 12.9 | 0.00 | 0.00 | 0.00 | 44 | 1011.7 |
| 20260509102813 | 20 | 330 | 4.8 | 8.0 | 0.00 | 0.00 | 0.00 | 46 | 1012.1 |
| 20260509102310 | 20 | 333 | 9.7 | 12.9 | 0.00 | 0.00 | 0.00 | 45 | 1012.1 |
| 20260509101806 | 19 | 302 | 1.6 | 1.6 | 0.00 | 0.00 | 0.00 | 45 | 1012.1 |
| 20260509101302 | 19 | 2 | 9.7 | 11.3 | 0.00 | 0.00 | 0.00 | 45 | 1012.1 |
| 20260509100800 | 19 | 358 | 6.4 | 9.7 | 0.00 | 0.00 | 0.00 | 46 | 1012.3 |
| 20260509100257 | 19 | 4 | 1.6 | 3.2 | 0.00 | 0.00 | 0.00 | 46 | 1012.2 |
| 20260509095753 | 18 | 321 | 8.0 | 9.7 | 0.00 | 0.00 | 0.00 | 47 | 1012.3 |
| 20260509095251 | 19 | 350 | 4.8 | 8.0 | 0.00 | 0.00 | 0.00 | 47 | 1012.7 |
| 20260509094748 | 20 | 35 | 8.0 | 9.7 | 0.00 | 0.00 | 0.00 | 46 | 1012.6 |
| 20260509094245 | 20 | 84 | 1.6 | 1.6 | 0.00 | 0.00 | 0.00 | 48 | 1012.4 |
| 20260509093742 | 20 | 36 | 8.0 | 12.9 | 0.00 | 0.00 | 0.00 | 47 | 1012.5 |
| 20260509093239 | 19 | 322 | 3.2 | 4.8 | 0.00 | 0.00 | 0.00 | 48 | 1012.8 |
| 20260509092738 | 19 | 48 | 3.2 | 3.2 | 0.00 | 0.00 | 0.00 | 49 | 1012.7 |
| 20260509092235 | 19 | 90 | 8.0 | 11.3 | 0.00 | 0.00 | 0.00 | 46 | 1012.9 |
| 20260509091733 | 19 | 308 | 4.8 | 4.8 | 0.00 | 0.00 | 0.00 | 47 | 1013.0 |
| 20260509091229 | 19 | 42 | 4.8 | 8.0 | 0.00 | 0.00 | 0.00 | 48 | 1013.0 |
| 20260509090727 | 20 | 71 | 3.2 | 4.8 | 0.00 | 0.00 | 0.00 | 47 | 1013.2 |
| 20260509090224 | 19 | 320 | 4.8 | 4.8 | 0.00 | 0.00 | 0.00 | 46 | 1013.3 |
| 20260509085722 | 18 | 123 | 3.2 | 3.2 | 0.00 | 0.00 | 0.00 | 47 | 1013.5 |
| 20260509085219 | 18 | 30 | 3.2 | 3.2 | 0.00 | 0.00 | 0.00 | 49 | 1013.4 |
| 20260509084715 | 18 | 309 | 3.2 | 3.2 | 0.00 | 0.00 | 0.00 | 48 | 1013.5 |
| 20260509084212 | 18 | 137 | 1.6 | 3.2 | 0.00 | 0.00 | 0.00 | 48 | 1013.5 |
| 20260509083710 | 19 | 76 | 3.2 | 3.2 | 0.00 | 0.00 | 0.00 | 49 | 1013.6 |
| 20260509083206 | 18 | 341 | 3.2 | 3.2 | 0.00 | 0.00 | 0.00 | 49 | 1013.6 |
| 20260509082703 | 18 | 344 | 3.2 | 4.8 | 0.00 | 0.00 | 0.00 | 49 | 1013.6 |
| 20260509082200 | 17 | 330 | 4.8 | 4.8 | 0.00 | 0.00 | 0.00 | 53 | 1013.8 |
| 20260509081657 | 17 | 333 | 1.6 | 1.6 | 0.00 | 0.00 | 0.00 | 53 | 1013.6 |
| 20260509081154 | 17 | 6 | 1.6 | 3.2 | 0.00 | 0.00 | 0.00 | 53 | 1013.9 |
| 20260509080652 | 17 | 16 | 3.2 | 3.2 | 0.00 | 0.00 | 0.00 | 52 | 1013.9 |
| 20260509080150 | 17 | 35 | 1.6 | 3.2 | 0.00 | 0.00 | 0.00 | 53 | 1013.9 |
| 20260509075648 | 17 | 45 | 4.8 | 4.8 | 0.00 | 0.00 | 0.00 | 52 | 1013.8 |
| 20260509075145 | 17 | 46 | 4.8 | 4.8 | 0.00 | 0.00 | 0.00 | 51 | 1014.2 |
| 20260509074642 | 17 | 32 | 1.6 | 1.6 | 0.00 | 0.00 | 0.00 | 53 | 1013.8 |
| 20260509074138 | 17 | 119 | 3.2 | 3.2 | 0.00 | 0.00 | 0.00 | 53 | 1013.9 |
| 20260509073635 | 16 | 334 | 1.6 | 3.2 | 0.00 | 0.00 | 0.00 | 53 | 1014.0 |
| 20260509073126 | 16 | 0 | 3.2 | 3.2 | 0.00 | 0.00 | 0.00 | 58 | 1014.0 |
| 20260509072623 | 16 | 57 | 3.2 | 3.2 | 0.00 | 0.00 | 0.00 | 61 | 1013.9 |
| 20260509072120 | 16 | 341 | 0.0 | 1.6 | 0.00 | 0.00 | 0.00 | 62 | 1013.9 |
| 20260509071616 | 15 | 224 | 0.0 | 1.6 | 0.00 | 0.00 | 0.00 | 64 | 1013.9 |
| 20260509071113 | 15 | 117 | 3.2 | 3.2 | 0.00 | 0.00 | 0.00 | 67 | 1014.0 |
| 20260509070611 | 14 | 122 | 1.6 | 3.2 | 0.00 | 0.00 | 0.00 | 73 | 1013.9 |
| 20260509070107 | 13 | 208 | 1.6 | 3.2 | 0.00 | 0.00 | 0.00 | 79 | 1014.0 |
| 20260509065603 | 13 | 238 | 0.0 | 1.6 | 0.00 | 0.00 | 0.00 | 85 | 1014.2 |
| 20260509065059 | 12 | 296 | 1.6 | 1.6 | 0.00 | 0.00 | 0.00 | 88 | 1013.9 |
| 20260509064556 | 11 | 290 | 0.0 | 1.6 | 0.00 | 0.00 | 0.00 | 89 | 1013.9 |
| 20260509064054 | 11 | 286 | 0.0 | 0.0 | 0.00 | 0.00 | 0.00 | 90 | 1013.9 |
| 20260509063550 | 11 | 242 | 1.6 | 1.6 | 0.00 | 0.00 | 0.00 | 90 | 1014.0 |
| 20260509063047 | 11 | 233 | 1.6 | 1.6 | 0.00 | 0.00 | 0.00 | 90 | 1014.0 |
| 20260509062544 | 11 | 291 | 0.0 | 0.0 | 0.00 | 0.00 | 0.00 | 91 | 1014.0 |
| 20260509062042 | 10 | 286 | 0.0 | 0.0 | 0.00 | 0.00 | 0.00 | 91 | 1014.3 |
| 20260509061538 | 10 | 286 | 0.0 | 0.0 | 0.00 | 0.00 | 0.00 | 91 | 1014.4 |
| 20260509061036 | 9 | 288 | 0.0 | 0.0 | 0.00 | 0.00 | 0.00 | 92 | 1014.4 |
| 20260509060533 | 7 | 292 | 1.6 | 1.6 | 0.00 | 0.00 | 0.00 | 91 | 1014.3 |
| 20260509060029 | 7 | 292 | 0.0 | 1.6 | 0.00 | 0.00 | 0.00 | 91 | 1014.4 |
| 20260509055524 | 6 | 296 | 1.6 | 1.6 | 0.00 | 0.00 | 0.00 | 91 | 1014.3 |
| 20260509055020 | 6 | 258 | 0.0 | 0.0 | 0.00 | 0.00 | 0.00 | 91 | 1014.3 |
| 20260509054517 | 5 | 291 | 0.0 | 0.0 | 0.00 | 0.00 | 0.00 | 91 | 1014.2 |
| 20260509054015 | 5 | 303 | 1.6 | 1.6 | 0.00 | 0.00 | 0.00 | 91 | 1014.2 |
| 20260509053513 | 5 | 281 | 1.6 | 1.6 | 0.00 | 0.00 | 0.00 | 90 | 1014.4 |
| 20260509053010 | 5 | 251 | 0.0 | 1.6 | 0.00 | 0.00 | 0.00 | 90 | 1014.0 |
| 20260509052507 | 5 | 308 | 1.6 | 1.6 | 0.00 | 0.00 | 0.00 | 90 | 1013.8 |
| 20260509052005 | 5 | 303 | 0.0 | 1.6 | 0.00 | 0.00 | 0.00 | 90 | 1013.9 |
| 20260509051503 | 5 | 307 | 0.0 | 1.6 | 0.00 | 0.00 | 0.00 | 90 | 1014.0 |
| 20260509051000 | 5 | 311 | 1.6 | 1.6 | 0.00 | 0.00 | 0.00 | 90 | 1014.0 |
| 20260509050456 | 5 | 303 | 1.6 | 1.6 | 0.00 | 0.00 | 0.00 | 90 | 1014.2 |
| 20260509045953 | 5 | 302 | 1.6 | 1.6 | 0.00 | 0.00 | 0.00 | 90 | 1014.0 |
| 20260509045450 | 5 | 298 | 1.6 | 1.6 | 0.00 | 0.00 | 0.00 | 90 | 1014.4 |
| 20260509044947 | 6 | 298 | 1.6 | 1.6 | 0.00 | 0.00 | 0.00 | 90 | 1014.3 |
| 20260509044445 | 5 | 296 | 0.0 | 0.0 | 0.00 | 0.00 | 0.00 | 90 | 1014.5 |
| 20260509043942 | 6 | 305 | 1.6 | 1.6 | 0.00 | 0.00 | 0.00 | 90 | 1014.4 |
| 20260509043437 | 6 | 293 | 1.6 | 1.6 | 0.00 | 0.00 | 0.00 | 90 | 1014.4 |
| 20260509042933 | 5 | 290 | 1.6 | 1.6 | 0.00 | 0.00 | 0.00 | 89 | 1014.4 |
| 20260509042431 | 6 | 291 | 0.0 | 0.0 | 0.00 | 0.00 | 0.00 | 89 | 1014.3 |
| 20260509041927 | 6 | 291 | 0.0 | 0.0 | 0.00 | 0.00 | 0.00 | 89 | 1014.5 |
| 20260509041423 | 6 | 291 | 1.6 | 1.6 | 0.00 | 0.00 | 0.00 | 89 | 1014.5 |
| 20260509040921 | 6 | 291 | 1.6 | 1.6 | 0.00 | 0.00 | 0.00 | 89 | 1014.4 |
| 20260509040419 | 6 | 290 | 0.0 | 0.0 | 0.00 | 0.00 | 0.00 | 89 | 1014.2 |
| 20260509035916 | 6 | 292 | 0.0 | 0.0 | 0.00 | 0.00 | 0.00 | 89 | 1014.3 |
| 20260509035413 | 5 | 306 | 1.6 | 1.6 | 0.00 | 0.00 | 0.00 | 89 | 1014.4 |
| 20260509034909 | 6 | 310 | 1.6 | 1.6 | 0.00 | 0.00 | 0.00 | 89 | 1014.3 |
| 20260509034407 | 6 | 310 | 1.6 | 1.6 | 0.00 | 0.00 | 0.00 | 89 | 1014.4 |
| 20260509033904 | 6 | 312 | 1.6 | 1.6 | 0.00 | 0.00 | 0.00 | 89 | 1014.2 |
| 20260509033401 | 6 | 310 | 1.6 | 1.6 | 0.00 | 0.00 | 0.00 | 89 | 1014.2 |
| 20260509032857 | 6 | 310 | 1.6 | 1.6 | 0.00 | 0.00 | 0.00 | 89 | 1014.4 |
| 20260509032355 | 6 | 310 | 1.6 | 1.6 | 0.00 | 0.00 | 0.00 | 89 | 1014.6 |
| 20260509031853 | 6 | 310 | 1.6 | 1.6 | 0.00 | 0.00 | 0.00 | 89 | 1014.7 |
| 20260509031350 | 6 | 311 | 1.6 | 1.6 | 0.00 | 0.00 | 0.00 | 89 | 1014.6 |
| 20260509030847 | 6 | 310 | 1.6 | 1.6 | 0.00 | 0.00 | 0.00 | 88 | 1014.6 |
| 20260509030345 | 6 | 311 | 1.6 | 1.6 | 0.00 | 0.00 | 0.00 | 88 | 1014.9 |
| 20260509025837 | 6 | 311 | 1.6 | 3.2 | 0.00 | 0.00 | 0.00 | 88 | 1014.8 |
| 20260509025332 | 6 | 310 | 1.6 | 1.6 | 0.00 | 0.00 | 0.00 | 88 | 1014.8 |
| 20260509024828 | 6 | 310 | 1.6 | 1.6 | 0.00 | 0.00 | 0.00 | 88 | 1014.8 |
| 20260509024324 | 6 | 310 | 1.6 | 1.6 | 0.00 | 0.00 | 0.00 | 88 | 1014.8 |
| 20260509023821 | 6 | 310 | 1.6 | 1.6 | 0.00 | 0.00 | 0.00 | 88 | 1014.9 |
| 20260509023319 | 6 | 310 | 1.6 | 1.6 | 0.00 | 0.00 | 0.00 | 88 | 1014.8 |
| 20260509022815 | 6 | 310 | 0.0 | 0.0 | 0.00 | 0.00 | 0.00 | 88 | 1014.8 |
| 20260509022313 | 6 | 310 | 1.6 | 1.6 | 0.00 | 0.00 | 0.00 | 88 | 1014.9 |
| 20260509021809 | 6 | 310 | 1.6 | 1.6 | 0.00 | 0.00 | 0.00 | 88 | 1014.9 |
| 20260509021306 | 6 | 310 | 1.6 | 1.6 | 0.00 | 0.00 | 0.00 | 88 | 1014.7 |
| 20260509020804 | 6 | 310 | 1.6 | 1.6 | 0.00 | 0.00 | 0.00 | 87 | 1014.9 |
| 20260509020302 | 6 | 310 | 1.6 | 1.6 | 0.00 | 0.00 | 0.00 | 87 | 1014.9 |
| 20260509015759 | 6 | 310 | 1.6 | 1.6 | 0.00 | 0.00 | 0.00 | 87 | 1014.8 |
| 20260509015257 | 6 | 310 | 1.6 | 1.6 | 0.00 | 0.00 | 0.00 | 87 | 1015.0 |
| 20260509014753 | 6 | 311 | 1.6 | 1.6 | 0.00 | 0.00 | 0.00 | 87 | 1015.2 |
| 20260509014250 | 6 | 310 | 1.6 | 1.6 | 0.00 | 0.00 | 0.00 | 87 | 1015.1 |
| 20260509013747 | 6 | 310 | 0.0 | 0.0 | 0.00 | 0.00 | 0.00 | 86 | 1015.1 |
| 20260509013243 | 6 | 310 | 0.0 | 0.0 | 0.00 | 0.00 | 0.00 | 86 | 1015.3 |
| 20260509012740 | 6 | 315 | 1.6 | 1.6 | 0.00 | 0.00 | 0.00 | 86 | 1015.3 |
| 20260509012236 | 6 | 307 | 1.6 | 1.6 | 0.00 | 0.00 | 0.00 | 86 | 1015.5 |
| 20260509011733 | 6 | 306 | 1.6 | 1.6 | 0.00 | 0.00 | 0.00 | 86 | 1015.6 |
| 20260509011231 | 6 | 306 | 1.6 | 1.6 | 0.00 | 0.00 | 0.00 | 85 | 1015.4 |
| 20260509010728 | 6 | 305 | 1.6 | 1.6 | 0.00 | 0.00 | 0.00 | 85 | 1015.5 |
| 20260509010224 | 6 | 306 | 1.6 | 1.6 | 0.00 | 0.00 | 0.00 | 85 | 1015.5 |
| 20260509005722 | 6 | 303 | 1.6 | 1.6 | 0.00 | 0.00 | 0.00 | 85 | 1015.5 |
| 20260509005220 | 7 | 303 | 1.6 | 3.2 | 0.00 | 0.00 | 0.00 | 85 | 1015.5 |
| 20260509004719 | 7 | 300 | 1.6 | 1.6 | 0.00 | 0.00 | 0.00 | 85 | 1015.4 |
| 20260509004217 | 7 | 299 | 1.6 | 1.6 | 0.00 | 0.00 | 0.00 | 84 | 1015.7 |
| 20260509003715 | 7 | 296 | 1.6 | 1.6 | 0.00 | 0.00 | 0.00 | 84 | 1015.6 |
| 20260509003213 | 7 | 295 | 1.6 | 1.6 | 0.00 | 0.00 | 0.00 | 84 | 1015.7 |
| 20260509002709 | 7 | 295 | 0.0 | 0.0 | 0.00 | 0.00 | 0.00 | 84 | 1015.5 |
| 20260509002207 | 7 | 291 | 0.0 | 1.6 | 0.00 | 0.00 | 0.00 | 84 | 1015.8 |
| 20260509001705 | 7 | 295 | 0.0 | 1.6 | 0.00 | 0.00 | 0.00 | 84 | 1015.8 |
| 20260509001200 | 7 | 297 | 1.6 | 1.6 | 0.00 | 0.00 | 0.00 | 84 | 1015.9 |
| 20260509000659 | 7 | 295 | 1.6 | 1.6 | 0.00 | 0.00 | 0.00 | 84 | 1015.8 |
| 20260509000155 | 7 | 291 | 1.6 | 1.6 | 0.00 | 0.00 | 0.00 | 84 | 1016.0 |
| 20260508235652 | 7 | 291 | 0.0 | 0.0 | 0.00 | 0.00 | 0.00 | 84 | 1015.8 |
| 20260508235149 | 7 | 292 | 0.0 | 1.6 | 0.00 | 0.00 | 0.00 | 84 | 1015.8 |
| 20260508234646 | 7 | 295 | 1.6 | 1.6 | 0.00 | 0.00 | 0.00 | 84 | 1015.7 |
| 20260508234142 | 7 | 298 | 1.6 | 1.6 | 0.00 | 0.00 | 0.00 | 84 | 1015.7 |
| 20260508233642 | 7 | 289 | 1.6 | 1.6 | 0.00 | 0.00 | 0.00 | 85 | 1015.7 |
| 20260508233139 | 7 | 283 | 1.6 | 1.6 | 0.00 | 0.00 | 0.00 | 84 | 1015.9 |
| 20260508232636 | 7 | 284 | 0.0 | 0.0 | 0.00 | 0.00 | 0.00 | 84 | 1015.8 |
| 20260508232133 | 7 | 284 | 1.6 | 1.6 | 0.00 | 0.00 | 0.00 | 84 | 1016.0 |
| 20260508231631 | 7 | 279 | 0.0 | 0.0 | 0.00 | 0.00 | 0.00 | 84 | 1016.0 |
| 20260508231127 | 7 | 304 | 1.6 | 1.6 | 0.00 | 0.00 | 0.00 | 84 | 1015.9 |
| 20260508230624 | 7 | 305 | 1.6 | 1.6 | 0.00 | 0.00 | 0.00 | 84 | 1016.1 |
| 20260508230120 | 7 | 305 | 3.2 | 3.2 | 0.00 | 0.00 | 0.00 | 83 | 1016.1 |
| 20260508225619 | 7 | 292 | 1.6 | 1.6 | 0.00 | 0.00 | 0.00 | 84 | 1015.9 |
| 20260508225114 | 7 | 293 | 1.6 | 1.6 | 0.00 | 0.00 | 0.00 | 83 | 1016.0 |
| 20260508224613 | 7 | 295 | 0.0 | 1.6 | 0.00 | 0.00 | 0.00 | 83 | 1016.4 |
| 20260508224110 | 7 | 295 | 0.0 | 1.6 | 0.00 | 0.00 | 0.00 | 83 | 1016.3 |
| 20260508223608 | 7 | 303 | 1.6 | 1.6 | 0.00 | 0.00 | 0.00 | 83 | 1016.0 |
| 20260508223105 | 7 | 300 | 1.6 | 1.6 | 0.00 | 0.00 | 0.00 | 83 | 1016.3 |
| 20260508222602 | 7 | 301 | 1.6 | 1.6 | 0.00 | 0.00 | 0.00 | 83 | 1016.4 |
| 20260508222059 | 7 | 295 | 1.6 | 1.6 | 0.00 | 0.00 | 0.00 | 83 | 1016.4 |
| 20260508221555 | 7 | 292 | 1.6 | 1.6 | 0.00 | 0.00 | 0.00 | 82 | 1016.5 |
| 20260508221051 | 7 | 293 | 0.0 | 0.0 | 0.00 | 0.00 | 0.00 | 82 | 1016.5 |
| 20260508220548 | 7 | 309 | 1.6 | 1.6 | 0.00 | 0.00 | 0.00 | 82 | 1016.5 |
| 20260508220044 | 7 | 314 | 3.2 | 3.2 | 0.00 | 0.00 | 0.00 | 82 | 1016.6 |
| 20260508215541 | 7 | 304 | 1.6 | 3.2 | 0.00 | 0.00 | 0.00 | 81 | 1016.3 |
| 20260508215037 | 7 | 303 | 1.6 | 3.2 | 0.00 | 0.00 | 0.00 | 81 | 1016.6 |
| 20260508214535 | 7 | 291 | 1.6 | 1.6 | 0.00 | 0.00 | 0.00 | 80 | 1016.5 |
| 20260508214031 | 7 | 301 | 1.6 | 1.6 | 0.00 | 0.00 | 0.00 | 80 | 1016.5 |
| 20260508213529 | 7 | 298 | 1.6 | 1.6 | 0.00 | 0.00 | 0.00 | 79 | 1016.5 |
| 20260508213024 | 7 | 296 | 1.6 | 1.6 | 0.00 | 0.00 | 0.00 | 79 | 1016.6 |
| 20260508212521 | 7 | 296 | 0.0 | 1.6 | 0.00 | 0.00 | 0.00 | 79 | 1016.6 |
| 20260508212017 | 7 | 296 | 0.0 | 1.6 | 0.00 | 0.00 | 0.00 | 78 | 1016.5 |
| 20260508211513 | 8 | 295 | 0.0 | 0.0 | 0.00 | 0.00 | 0.00 | 78 | 1016.8 |
| 20260508211010 | 8 | 296 | 0.0 | 0.0 | 0.00 | 0.00 | 0.00 | 78 | 1016.7 |
| 20260508210506 | 8 | 294 | 0.0 | 1.6 | 0.00 | 0.00 | 0.00 | 78 | 1016.8 |
| 20260508210004 | 7 | 291 | 0.0 | 0.0 | 0.00 | 0.00 | 0.00 | 78 | 1016.9 |
| 20260508205500 | 8 | 291 | 0.0 | 0.0 | 0.00 | 0.00 | 0.00 | 78 | 1016.8 |
| 20260508204956 | 8 | 303 | 1.6 | 1.6 | 0.00 | 0.00 | 0.00 | 78 | 1016.9 |
| 20260508204454 | 8 | 313 | 1.6 | 3.2 | 0.00 | 0.00 | 0.00 | 78 | 1016.7 |
| 20260508203949 | 8 | 312 | 3.2 | 3.2 | 0.00 | 0.00 | 0.00 | 78 | 1016.9 |
| 20260508203445 | 8 | 286 | 0.0 | 1.6 | 0.00 | 0.00 | 0.00 | 78 | 1016.9 |
| 20260508202941 | 8 | 295 | 1.6 | 1.6 | 0.00 | 0.00 | 0.00 | 78 | 1017.0 |
| 20260508202439 | 8 | 295 | 1.6 | 1.6 | 0.00 | 0.00 | 0.00 | 78 | 1016.8 |
| 20260508201935 | 8 | 292 | 0.0 | 1.6 | 0.00 | 0.00 | 0.00 | 77 | 1016.9 |
| 20260508201432 | 8 | 305 | 1.6 | 1.6 | 0.00 | 0.00 | 0.00 | 77 | 1017.0 |
| 20260508200929 | 8 | 309 | 1.6 | 1.6 | 0.00 | 0.00 | 0.00 | 77 | 1016.8 |
| 20260508200426 | 8 | 277 | 1.6 | 1.6 | 0.00 | 0.00 | 0.00 | 76 | 1016.8 |
| 20260508195921 | 8 | 294 | 1.6 | 1.6 | 0.00 | 0.00 | 0.00 | 75 | 1017.0 |
| 20260508195418 | 8 | 306 | 1.6 | 1.6 | 0.00 | 0.00 | 0.00 | 74 | 1017.1 |
| 20260508194914 | 8 | 293 | 1.6 | 1.6 | 0.00 | 0.00 | 0.00 | 73 | 1017.3 |
| 20260508194412 | 8 | 299 | 0.0 | 1.6 | 0.00 | 0.00 | 0.00 | 72 | 1016.9 |
| 20260508193909 | 9 | 298 | 0.0 | 1.6 | 0.00 | 0.00 | 0.00 | 71 | 1016.9 |
| 20260508193406 | 9 | 277 | 1.6 | 1.6 | 0.00 | 0.00 | 0.00 | 71 | 1017.0 |
| 20260508192902 | 9 | 290 | 0.0 | 0.0 | 0.00 | 0.00 | 0.00 | 71 | 1016.8 |
| 20260508192358 | 10 | 311 | 1.6 | 1.6 | 0.00 | 0.00 | 0.00 | 70 | 1016.8 |
| 20260508191856 | 10 | 287 | 1.6 | 1.6 | 0.00 | 0.00 | 0.00 | 70 | 1016.9 |
| 20260508191353 | 10 | 306 | 1.6 | 1.6 | 0.00 | 0.00 | 0.00 | 69 | 1017.0 |
| 20260508190850 | 10 | 299 | 1.6 | 1.6 | 0.00 | 0.00 | 0.00 | 69 | 1016.8 |
| 20260508190346 | 10 | 262 | 1.6 | 1.6 | 0.00 | 0.00 | 0.00 | 69 | 1016.9 |